Flag for U.S.A. Weather past 2 weeks in St. Augustine, Florida, U.S.A.

Now
68 °F

Clear.


Feels Like: 68 °F
Forecast: 62 / 75 °F
Wind: No wind

Location: St. Augustine Airport

Current Time: Oct 21, 2014 at 11:39:38 PM

Latest Report: Oct 21, 2014 at 10:58 PM


Visibility: 10 mi

Pressure: 29.97 "Hg

Humidity: 93%

Dew point: 66 °F

Location of St. AugustineLocation

Historic Weather in St. Augustine — Graph

°F

St. Augustine temperature yesterday

Maximum temperature yesterday: 80 °F (at 1:58 PM)
Minimum temperature yesterday: 71 °F (at 12:58 AM)
Average temperature yesterday: 76 °F

Past Weeks' High & Low Weather Summary

 TemperatureHumidityPressure
High87 °F (Oct 14, 12:58 PM)100% (Oct 9, 6:58 AM)30.17 "Hg (Oct 9, 6:58 AM)
Low58 °F (Oct 16, 5:58 AM)36% (Oct 16, 4:58 PM)29.87 "Hg (Oct 16, 2:58 PM)
Average74 °F77%30.02 "Hg
* Reported Oct 6 9:58 PM — Oct 21 9:58 PM, St. Augustine, Weather by CustomWeather, © 2014

Note: Actual official high and low records may vary slightly from our data, if they occured in-between our weather recording intervals... More about our weather records

Advertising

St. Augustine weather history for previous 24 hours

 ConditionsComfort  
Time TempWeatherWind HumidityBarometerVisibility
9:58 PM
Oct 21
70 °FClear.No wind90%29.96 "Hg10 mi
8:58 PM71 °FClear.No wind87%29.95 "Hg10 mi
7:58 PM73 °FClear.No wind84%29.94 "Hg10 mi
6:58 PM75 °FSunny.No wind76%29.92 "Hg10 mi
5:58 PM77 °FSunny.7 mph71%29.92 "Hg10 mi
4:58 PM78 °FSunny.6 mph69%29.92 "Hg10 mi
3:58 PM78 °FPassing clouds.9 mph71%29.93 "Hg10 mi
2:58 PM79 °FPassing clouds.10 mph72%29.92 "Hg10 mi
1:58 PM80 °FPartly sunny.12 mph69%29.93 "Hg10 mi
12:58 PM80 °FPartly sunny.9 mph71%29.96 "Hg10 mi
11:58 AM81 °FSunny.6 mph62%29.97 "Hg10 mi
10:58 AM78 °FPassing clouds.7 mph69%29.99 "Hg10 mi
9:58 AM73 °FScattered clouds.5 mph81%30.00 "Hg10 mi
8:58 AM70 °FSunny.3 mph87%29.98 "Hg10 mi
7:58 AM68 °FClear.6 mph93%29.97 "Hg10 mi
6:58 AM68 °FClear.7 mph93%29.95 "Hg10 mi
5:58 AM67 °FClear.5 mph97%29.94 "Hg10 mi
4:58 AM68 °FClear.No wind93%29.94 "Hg10 mi
3:58 AM69 °FClear.6 mph93%29.95 "Hg10 mi
2:58 AM69 °FClear.5 mph93%29.96 "Hg10 mi
1:58 AM70 °FClear.5 mph90%29.97 "Hg10 mi
12:58 AM70 °FClear.No wind90%29.97 "Hg10 mi
11:58 PM
Oct 20
71 °FClear.No wind87%29.99 "Hg10 mi
Weather by CustomWeather, © 2014

See weather overviewHow to use our weather pages